Location: Cheching
(60.0667°N, 164.2167°W)
Time: 11:02:45
(UTC+00:00)

UNISAT 6 - Pass Details

Date: 24 January 2021
Orbit: 607 x 687 km, 97.7° (Epoch: 24 February)

Event Time Altitude Azimuth Distance (km) Brightness Sun altitude
Rises 14:56:54 0° 94° (E) 2,902 ? -32.7°
Reaches altitude 10° 15:00:16 10° 65° (ENE) 2,015 ? -32.3°
Maximum altitude 15:02:05 13° 40° (NE) 1,862 ? -32.1°
Drops below altitude 10° 15:03:56 10° 15° (NNE) 2,038 ? -31.9°
Enters shadow 15:05:50 - 357° (N) 2,487 ? -31.6°
